Location: Newark
(52.3500°N, 175.9667°E)
Time: 23:06:33
(UTC+00:00)

Vanguard 1 - Pass Details

Date: 23 April 2021
Orbit: 649 x 3834 km, 34.2° (Epoch: 04 May)

Event Time Altitude Azimuth Distance (km) Brightness Sun altitude
Rises 09:04:45 0° 276° (W) 7,691 15.6 -13.3°
Reaches altitude 10° 09:14:19 10° 256° (WSW) 6,918 14.8 -14.3°
Maximum altitude 09:23:17 14° 233° (SW) 6,558 14.3 -15.3°
Drops below altitude 10° 09:32:01 10° 209° (SSW) 6,624 14.1 -16.2°
Sets 09:40:55 0° 188° (S) 7,126 14.1 -17.1°
